Hourly Weather Muyinga

Today, 13 June, Sunday

Time Temperature Precipitation Wind Pressure Humidity
00:00 +16°C° 0 mm 1 mps 628 mmHg 74%
01:00 +16°C° 0 mm 1 mps 628 mmHg 76%
02:00 +15°C° 0 mm 1 mps 627 mmHg 77%
03:00 +15°C° 0 mm 1 mps 628 mmHg 78%
04:00 +15°C° 0 mm 1 mps 628 mmHg 79%
05:00 +14°C° 0 mm 1 mps 628 mmHg 80%
06:00 +16°C° 0 mm 1 mps 629 mmHg 75%
07:00 +19°C° 0 mm 1 mps 630 mmHg 69%
08:00 +20°C° 0 mm 1 mps 631 mmHg 64%
09:00 +22°C° 0 mm 1 mps 631 mmHg 58%
10:00 +24°C° 0 mm 2 mps 631 mmHg 53%
11:00 +26°C° 0 mm 2 mps 632 mmHg 47%
12:00 +27°C° 0 mm 2 mps 631 mmHg 45%
13:00 +28°C° 0 mm 1 mps 631 mmHg 42%
14:00 +29°C° 0 mm 1 mps 631 mmHg 40%
15:00 +28°C° 0 mm 1 mps 630 mmHg 44%
16:00 +27°C° 0 mm 1 mps 630 mmHg 49%
17:00 +26°C° 0 mm 1 mps 629 mmHg 54%
18:00 +24°C° 0 mm 1 mps 629 mmHg 58%
19:00 +22°C° 0 mm 1 mps 629 mmHg 62%
20:00 +21°C° 0 mm 1 mps 629 mmHg 66%
21:00 +20°C° 0 mm 1 mps 629 mmHg 68%
22:00 +19°C° 0 mm 1 mps 629 mmHg 70%
23:00 +18°C° 0 mm 1 mps 629 mmHg 72%

Tomorrow, 14 June, Monday

Time Temperature Precipitation Wind Pressure Humidity
00:00 +18°C° 0 mm 1 mps 628 mmHg 74%
01:00 +16°C° 0 mm 1 mps 628 mmHg 76%
02:00 +16°C° 0 mm 1 mps 627 mmHg 79%
03:00 +15°C° 0 mm 1 mps 628 mmHg 80%
04:00 +15°C° 0 mm 1 mps 628 mmHg 82%
05:00 +15°C° 0 mm 1 mps 628 mmHg 83%
06:00 +18°C° 0 mm 1 mps 629 mmHg 77%
07:00 +19°C° 0 mm 1 mps 629 mmHg 70%
08:00 +21°C° 0 mm 1 mps 630 mmHg 63%
09:00 +23°C° 0 mm 1 mps 631 mmHg 57%
10:00 +25°C° 0 mm 1 mps 631 mmHg 51%
11:00 +27°C° 0 mm 2 mps 631 mmHg 45%
12:00 +26°C° 0 mm 2 mps 631 mmHg 46%
13:00 +26°C° 0 mm 2 mps 630 mmHg 48%
14:00 +26°C° 0 mm 2 mps 629 mmHg 50%
15:00 +25°C° 0 mm 2 mps 629 mmHg 52%
16:00 +25°C° 0 mm 2 mps 629 mmHg 54%
17:00 +24°C° 0 mm 1 mps 629 mmHg 57%
18:00 +23°C° 0 mm 1 mps 629 mmHg 61%
19:00 +21°C° 0 mm 1 mps 629 mmHg 65%
20:00 +20°C° 0 mm 1 mps 629 mmHg 69%
21:00 +19°C° 0 mm 1 mps 629 mmHg 72%
22:00 +19°C° 0 mm 1 mps 629 mmHg 76%
23:00 +18°C° 0 mm 1 mps 629 mmHg 79%

Day after tomorrow, 15 June, Tuesday

Time Temperature Precipitation Wind Pressure Humidity
00:00 +18°C° 0 mm 1 mps 628 mmHg 80%
01:00 +16°C° 0 mm 1 mps 628 mmHg 82%
02:00 +16°C° 0 mm 1 mps 627 mmHg 84%
03:00 +16°C° 0 mm 1 mps 627 mmHg 84%
04:00 +15°C° 0 mm 1 mps 627 mmHg 85%
05:00 +15°C° 0 mm 1 mps 627 mmHg 86%
06:00 +16°C° 0 mm 0 mps 628 mmHg 79%
07:00 +18°C° 0 mm 0 mps 629 mmHg 72%
08:00 +19°C° 0 mm 0 mps 630 mmHg 65%
09:00 +21°C° 0 mm 0 mps 630 mmHg 58%
10:00 +26°C° 0 mm 1 mps 631 mmHg 50%
11:00 +28°C° 0 mm 1 mps 631 mmHg 43%
12:00 +27°C° 0 mm 2 mps 630 mmHg 44%
13:00 +27°C° 0 mm 2 mps 629 mmHg 46%
14:00 +26°C° 0 mm 2 mps 628 mmHg 48%
15:00 +25°C° 0 mm 2 mps 628 mmHg 53%
16:00 +24°C° 0 mm 2 mps 628 mmHg 57%
17:00 +23°C° 0 mm 1 mps 628 mmHg 61%
18:00 +23°C° 0 mm 1 mps 628 mmHg 64%
19:00 +22°C° 0 mm 1 mps 628 mmHg 66%
20:00 +21°C° 0 mm 1 mps 629 mmHg 68%
21:00 +20°C° 0 mm 1 mps 629 mmHg 71%
22:00 +20°C° 0 mm 1 mps 629 mmHg 73%
23:00 +19°C° 0 mm 1 mps 628 mmHg 75%

16 June, Wednesday

Time Temperature Precipitation Wind Pressure Humidity
00:00 +19°C° 0 mm 1 mps 628 mmHg 75%
01:00 +19°C° 0 mm 1 mps 628 mmHg 75%
02:00 +19°C° 0 mm 1 mps 627 mmHg 75%
03:00 +19°C° 0 mm 1 mps 628 mmHg 74%
04:00 +19°C° 0 mm 1 mps 628 mmHg 74%
05:00 +19°C° 0 mm 1 mps 628 mmHg 73%
06:00 +20°C° 0 mm 1 mps 628 mmHg 72%
07:00 +18°C° 0 mm 0 mps 629 mmHg 70%
08:00 +19°C° 0 mm 0 mps 630 mmHg 68%
09:00 +22°C° 0 mm 1 mps 630 mmHg 63%
10:00 +23°C° 0 mm 1 mps 630 mmHg 57%
11:00 +25°C° 0 mm 1 mps 630 mmHg 52%
12:00 +25°C° 0 mm 1 mps 630 mmHg 52%
13:00 +25°C° 0 mm 1 mps 630 mmHg 51%
14:00 +25°C° 0 mm 1 mps 629 mmHg 51%
15:00 +25°C° 0 mm 1 mps 629 mmHg 52%
16:00 +23°C° 0 mm 0 mps 629 mmHg 54%
17:00 +23°C° 0 mm 0 mps 629 mmHg 55%
18:00 +22°C° 0 mm 0 mps 629 mmHg 57%
19:00 +20°C° 0 mm 0 mps 629 mmHg 59%
20:00 +19°C° 0 mm 0 mps 629 mmHg 61%
21:00 +19°C° 0 mm 0 mps 629 mmHg 62%
22:00 +20°C° 0 mm 1 mps 629 mmHg 63%
23:00 +20°C° 0 mm 1 mps 629 mmHg 64%

17 June, Thursday

Time Temperature Precipitation Wind Pressure Humidity
00:00 +19°C° 0 mm 1 mps 628 mmHg 65%
01:00 +18°C° 0 mm 1 mps 628 mmHg 67%
02:00 +16°C° 0 mm 1 mps 628 mmHg 68%
03:00 +16°C° 0 mm 1 mps 628 mmHg 69%
04:00 +16°C° 0 mm 1 mps 628 mmHg 69%
05:00 +16°C° 0 mm 1 mps 628 mmHg 70%
06:00 +18°C° 0 mm 1 mps 629 mmHg 66%
07:00 +20°C° 0 mm 1 mps 630 mmHg 62%
08:00 +19°C° 0 mm 0 mps 631 mmHg 59%
09:00 +23°C° 0 mm 1 mps 631 mmHg 51%
10:00 +25°C° 0 mm 1 mps 632 mmHg 44%
11:00 +28°C° 0 mm 1 mps 632 mmHg 37%
12:00 +28°C° 0 mm 1 mps 631 mmHg 35%
13:00 +29°C° 0 mm 1 mps 631 mmHg 34%
14:00 +29°C° 0 mm 1 mps 630 mmHg 32%
15:00 +28°C° 0 mm 1 mps 630 mmHg 38%
16:00 +27°C° 0 mm 1 mps 630 mmHg 43%
17:00 +25°C° 0 mm 1 mps 629 mmHg 48%
18:00 +24°C° 0 mm 1 mps 629 mmHg 49%
19:00 +23°C° 0 mm 1 mps 629 mmHg 51%
20:00 +22°C° 0 mm 1 mps 630 mmHg 52%
21:00 +22°C° 0 mm 1 mps 630 mmHg 54%
22:00 +21°C° 0 mm 1 mps 629 mmHg 56%
23:00 +20°C° 0 mm 1 mps 629 mmHg 57%

18 June, Friday

Time Temperature Precipitation Wind Pressure Humidity
00:00 +20°C° 0 mm 1 mps 629 mmHg 57%
01:00 +20°C° 0 mm 1 mps 629 mmHg 57%
02:00 +20°C° 0 mm 1 mps 629 mmHg 57%
03:00 +20°C° 0 mm 1 mps 629 mmHg 58%
04:00 +20°C° 0 mm 1 mps 629 mmHg 59%
05:00 +20°C° 0 mm 1 mps 629 mmHg 59%
06:00 +20°C° 0 mm 1 mps 630 mmHg 60%
07:00 +21°C° 0 mm 1 mps 630 mmHg 60%
08:00 +21°C° 0 mm 1 mps 631 mmHg 60%
09:00 +23°C° 0 mm 1 mps 631 mmHg 54%
10:00 +25°C° 0 mm 2 mps 632 mmHg 47%
11:00 +27°C° 0 mm 2 mps 632 mmHg 40%
12:00 +26°C° 0 mm 2 mps 631 mmHg 42%
13:00 +26°C° 0 mm 2 mps 631 mmHg 43%
14:00 +26°C° 0 mm 2 mps 630 mmHg 44%
15:00 +25°C° 0 mm 2 mps 630 mmHg 48%
16:00 +24°C° 0 mm 2 mps 630 mmHg 51%
17:00 +23°C° 0 mm 1 mps 629 mmHg 55%
18:00 +23°C° 0 mm 1 mps 630 mmHg 55%
19:00 +22°C° 0 mm 1 mps 630 mmHg 54%
20:00 +22°C° 0 mm 1 mps 630 mmHg 54%
21:00 +21°C° 0 mm 1 mps 630 mmHg 56%
22:00 +21°C° 0 mm 1 mps 630 mmHg 58%
23:00 +20°C° 0 mm 1 mps 630 mmHg 60%
Show more